When you browse on this site, cookies collect data to enhance your experience and personalize the content and advertising you see.
Visit our Privacy Policy to learn more. By continuing to use the site, you agree to this use of cookies and data.

Stündliche Wetter Masari Sharif

Heute, 5 August, Mittwoch

Zeit Temperatur Niederschläge Wind Luftdruck Luftfeuchtigkeit
00:00 +23°C° 0 mm 2 m/S 650 mmHg 25%
01:00 +21°C° 0 mm 2 m/S 650 mmHg 26%
02:00 +21°C° 0 mm 2 m/S 650 mmHg 26%
03:00 +21°C° 0 mm 2 m/S 650 mmHg 27%
04:00 +21°C° 0 mm 1 m/S 650 mmHg 30%
05:00 +23°C° 0 mm 2 m/S 651 mmHg 27%
06:00 +25°C° 0 mm 2 m/S 652 mmHg 24%
07:00 +27°C° 0 mm 2 m/S 653 mmHg 20%
08:00 +28°C° 0 mm 3 m/S 653 mmHg 20%
09:00 +29°C° 0 mm 3 m/S 654 mmHg 19%
10:00 +32°C° 0 mm 4 m/S 654 mmHg 18%
11:00 +32°C° 0 mm 4 m/S 654 mmHg 17%
12:00 +33°C° 0 mm 5 m/S 654 mmHg 16%
13:00 +34°C° 0 mm 5 m/S 653 mmHg 16%
14:00 +34°C° 0 mm 5 m/S 653 mmHg 16%
15:00 +34°C° 0 mm 5 m/S 653 mmHg 16%
16:00 +34°C° 0 mm 5 m/S 653 mmHg 16%
17:00 +30°C° 0 mm 4 m/S 652 mmHg 20%
18:00 +27°C° 0 mm 2 m/S 652 mmHg 23%
19:00 +25°C° 0 mm 1 m/S 651 mmHg 27%
20:00 +24°C° 0 mm 1 m/S 651 mmHg 28%
21:00 +24°C° 0 mm 1 m/S 651 mmHg 29%
22:00 +23°C° 0 mm 1 m/S 651 mmHg 30%
23:00 +23°C° 0 mm 1 m/S 651 mmHg 31%

Morgen, 6 August, Donnerstag

Zeit Temperatur Niederschläge Wind Luftdruck Luftfeuchtigkeit
00:00 +23°C° 0 mm 2 m/S 651 mmHg 31%
01:00 +23°C° 0 mm 2 m/S 651 mmHg 32%
02:00 +21°C° 0 mm 2 m/S 651 mmHg 33%
03:00 +21°C° 0 mm 1 m/S 650 mmHg 34%
04:00 +21°C° 0 mm 1 m/S 650 mmHg 36%
05:00 +23°C° 0 mm 1 m/S 651 mmHg 31%
06:00 +25°C° 0 mm 1 m/S 652 mmHg 27%
07:00 +28°C° 0 mm 1 m/S 653 mmHg 22%
08:00 +29°C° 0 mm 1 m/S 654 mmHg 21%
09:00 +31°C° 0 mm 2 m/S 654 mmHg 19%
10:00 +32°C° 0 mm 2 m/S 654 mmHg 18%
11:00 +34°C° 0 mm 3 m/S 654 mmHg 17%
12:00 +35°C° 0 mm 3 m/S 654 mmHg 16%
13:00 +36°C° 0 mm 4 m/S 654 mmHg 15%
14:00 +36°C° 0 mm 4 m/S 653 mmHg 15%
15:00 +36°C° 0 mm 4 m/S 653 mmHg 15%
16:00 +36°C° 0 mm 5 m/S 653 mmHg 15%
17:00 +33°C° 0 mm 3 m/S 652 mmHg 18%
18:00 +29°C° 0 mm 2 m/S 652 mmHg 22%
19:00 +26°C° 0 mm 1 m/S 651 mmHg 25%
20:00 +26°C° 0 mm 1 m/S 651 mmHg 25%
21:00 +26°C° 0 mm 1 m/S 651 mmHg 26%
22:00 +25°C° 0 mm 2 m/S 652 mmHg 26%
23:00 +25°C° 0 mm 2 m/S 651 mmHg 27%

übermorgen, 7 August, Freitag

Zeit Temperatur Niederschläge Wind Luftdruck Luftfeuchtigkeit
00:00 +24°C° 0 mm 2 m/S 651 mmHg 28%
01:00 +24°C° 0 mm 2 m/S 651 mmHg 29%
02:00 +23°C° 0 mm 2 m/S 651 mmHg 29%
03:00 +23°C° 0 mm 2 m/S 651 mmHg 30%
04:00 +23°C° 0 mm 2 m/S 651 mmHg 31%
05:00 +25°C° 0 mm 2 m/S 652 mmHg 27%
06:00 +27°C° 0 mm 2 m/S 653 mmHg 24%
07:00 +29°C° 0 mm 1 m/S 654 mmHg 20%
08:00 +31°C° 0 mm 2 m/S 654 mmHg 19%
09:00 +33°C° 0 mm 3 m/S 655 mmHg 17%
10:00 +34°C° 0 mm 3 m/S 655 mmHg 16%
11:00 +35°C° 0 mm 4 m/S 655 mmHg 15%
12:00 +36°C° 0 mm 4 m/S 655 mmHg 14%
13:00 +36°C° 0 mm 5 m/S 654 mmHg 13%
14:00 +36°C° 0 mm 5 m/S 654 mmHg 13%
15:00 +36°C° 0 mm 4 m/S 654 mmHg 13%
16:00 +36°C° 0 mm 4 m/S 653 mmHg 13%
17:00 +34°C° 0 mm 3 m/S 653 mmHg 16%
18:00 +30°C° 0 mm 3 m/S 653 mmHg 18%
19:00 +28°C° 0 mm 2 m/S 652 mmHg 21%
20:00 +27°C° 0 mm 2 m/S 652 mmHg 22%
21:00 +26°C° 0 mm 2 m/S 652 mmHg 23%
22:00 +25°C° 0 mm 2 m/S 652 mmHg 25%
23:00 +25°C° 0 mm 3 m/S 652 mmHg 26%

8 August, Samstag

Zeit Temperatur Niederschläge Wind Luftdruck Luftfeuchtigkeit
00:00 +24°C° 0 mm 3 m/S 651 mmHg 27%
01:00 +24°C° 0 mm 3 m/S 651 mmHg 28%
02:00 +22°C° 0 mm 3 m/S 651 mmHg 29%
03:00 +22°C° 0 mm 3 m/S 651 mmHg 30%
04:00 +21°C° 0 mm 2 m/S 651 mmHg 31%
05:00 +24°C° 0 mm 3 m/S 651 mmHg 29%
06:00 +25°C° 0 mm 3 m/S 652 mmHg 26%
07:00 +27°C° 0 mm 4 m/S 653 mmHg 24%
08:00 +28°C° 0 mm 4 m/S 653 mmHg 22%
09:00 +30°C° 0 mm 4 m/S 653 mmHg 20%
10:00 +32°C° 0 mm 4 m/S 654 mmHg 19%
11:00 +33°C° 0 mm 5 m/S 653 mmHg 18%
12:00 +34°C° 0 mm 6 m/S 653 mmHg 17%
13:00 +35°C° 0 mm 6 m/S 653 mmHg 17%
14:00 +35°C° 0 mm 6 m/S 653 mmHg 17%
15:00 +34°C° 0 mm 6 m/S 652 mmHg 17%
16:00 +34°C° 0 mm 6 m/S 652 mmHg 17%
17:00 +32°C° 0 mm 5 m/S 652 mmHg 20%
18:00 +29°C° 0 mm 4 m/S 651 mmHg 23%
19:00 +27°C° 0 mm 4 m/S 651 mmHg 26%
20:00 +26°C° 0 mm 3 m/S 651 mmHg 28%
21:00 +25°C° 0 mm 3 m/S 651 mmHg 30%
22:00 +23°C° 0 mm 2 m/S 650 mmHg 33%
23:00 +23°C° 0 mm 2 m/S 650 mmHg 33%

9 August, Sonntag

Zeit Temperatur Niederschläge Wind Luftdruck Luftfeuchtigkeit
00:00 +22°C° 0 mm 3 m/S 650 mmHg 34%
01:00 +22°C° 0 mm 3 m/S 650 mmHg 35%
02:00 +21°C° 0 mm 3 m/S 650 mmHg 36%
03:00 +20°C° 0 mm 2 m/S 650 mmHg 37%
04:00 +20°C° 0 mm 2 m/S 650 mmHg 38%
05:00 +23°C° 0 mm 2 m/S 651 mmHg 35%
06:00 +24°C° 0 mm 2 m/S 652 mmHg 31%
07:00 +26°C° 0 mm 2 m/S 653 mmHg 27%
08:00 +27°C° 0 mm 3 m/S 653 mmHg 25%
09:00 +29°C° 0 mm 3 m/S 653 mmHg 23%
10:00 +30°C° 0 mm 3 m/S 653 mmHg 21%
11:00 +32°C° 0 mm 4 m/S 652 mmHg 19%
12:00 +33°C° 0 mm 4 m/S 652 mmHg 18%
13:00 +33°C° 0 mm 5 m/S 652 mmHg 17%
14:00 +33°C° 0 mm 5 m/S 652 mmHg 16%
15:00 +33°C° 0 mm 5 m/S 651 mmHg 16%
16:00 +33°C° 0 mm 5 m/S 651 mmHg 16%
17:00 +30°C° 0 mm 4 m/S 651 mmHg 18%
18:00 +28°C° 0 mm 3 m/S 650 mmHg 21%
19:00 +25°C° 0 mm 2 m/S 650 mmHg 23%
20:00 +24°C° 0 mm 2 m/S 650 mmHg 24%
21:00 +23°C° 0 mm 2 m/S 650 mmHg 26%
22:00 +22°C° 0 mm 1 m/S 650 mmHg 27%
23:00 +22°C° 0 mm 1 m/S 649 mmHg 28%

10 August, Montag

Zeit Temperatur Niederschläge Wind Luftdruck Luftfeuchtigkeit
00:00 +21°C° 0 mm 1 m/S 649 mmHg 29%
01:00 +20°C° 0 mm 2 m/S 649 mmHg 30%
02:00 +21°C° 0 mm 1 m/S 649 mmHg 31%
03:00 +20°C° 0 mm 1 m/S 649 mmHg 32%
04:00 +20°C° 0 mm 1 m/S 649 mmHg 33%
05:00 +21°C° 0 mm 2 m/S 650 mmHg 29%
06:00 +24°C° 0 mm 2 m/S 650 mmHg 25%
07:00 +27°C° 0 mm 2 m/S 651 mmHg 22%
08:00 +28°C° 0 mm 2 m/S 652 mmHg 20%
09:00 +29°C° 0 mm 3 m/S 652 mmHg 19%
10:00 +30°C° 0 mm 3 m/S 652 mmHg 17%
11:00 +31°C° 0 mm 3 m/S 652 mmHg 16%
12:00 +33°C° 0 mm 4 m/S 652 mmHg 15%
13:00 +34°C° 0 mm 4 m/S 652 mmHg 15%
14:00 +34°C° 0 mm 4 m/S 651 mmHg 15%
15:00 +34°C° 0 mm 4 m/S 651 mmHg 14%
16:00 +34°C° 0 mm 4 m/S 651 mmHg 14%
17:00 +32°C° 0 mm 4 m/S 650 mmHg 17%
18:00 +28°C° 0 mm 3 m/S 650 mmHg 20%
19:00 +25°C° 0 mm 2 m/S 649 mmHg 22%
20:00 +25°C° 0 mm 2 m/S 649 mmHg 23%
21:00 +24°C° 0 mm 2 m/S 649 mmHg 25%
22:00 +23°C° 0 mm 2 m/S 649 mmHg 26%
23:00 +23°C° 0 mm 2 m/S 649 mmHg 27%
Mehr zeigen